TimeAEST,TemperatureF,Dew PointF,Humidity,Sea Level PressureIn,VisibilityMPH,Wind Direction,Wind SpeedMPH,Gust SpeedMPH,PrecipitationIn,Events,Conditions,WindDirDegrees,DateUTC
12:00 AM,71.6,59.0,64,30.15,-9999.0,SE,31.1,-,N/A,,Unknown,130,2012-10-03 14:00:00
12:30 AM,71.6,57.2,60,30.12,-9999.0,ESE,28.8,-,N/A,,Unknown,120,2012-10-03 14:30:00
1:00 AM,71.6,57.2,60,30.12,-9999.0,ESE,27.6,-,N/A,,Unknown,120,2012-10-03 15:00:00
1:30 AM,69.8,57.2,64,30.12,-9999.0,ESE,29.9,-,N/A,,Unknown,120,2012-10-03 15:30:00
2:00 AM,71.6,55.4,57,30.09,-9999.0,ESE,25.3,-,N/A,,Unknown,120,2012-10-03 16:00:00
2:30 AM,71.6,55.4,57,30.09,-9999.0,ESE,26.5,-,N/A,,Unknown,120,2012-10-03 16:30:00
3:00 AM,71,56,50,30.09,,SE,24.2,,,,,130,2012-10-03 17:00:00
3:00 AM,69.8,57.2,64,30.09,-9999.0,SE,24.2,-,N/A,,Unknown,130,2012-10-03 17:00:00
3:30 AM,69.8,59.0,68,30.09,-9999.0,SE,27.6,-,N/A,,Unknown,130,2012-10-03 17:30:00
4:00 AM,69.8,59.0,68,30.09,-9999.0,ESE,29.9,-,N/A,,Unknown,120,2012-10-03 18:00:00
4:30 AM,68.0,59.0,73,30.09,-9999.0,ESE,18.4,-,N/A,,Unknown,120,2012-10-03 18:30:00
5:00 AM,68.0,59.0,73,30.09,-9999.0,SE,19.6,-,N/A,,Unknown,130,2012-10-03 19:00:00
5:30 AM,68.0,57.2,68,30.09,-9999.0,SE,24.2,-,N/A,,Unknown,130,2012-10-03 19:30:00
6:00 AM,69,56,55,30.11,,SE,20.7,,,,,130,2012-10-03 20:00:00
6:00 AM,68.0,57.2,68,30.09,-9999.0,SE,20.7,-,N/A,,Unknown,130,2012-10-03 20:00:00
6:30 AM,69.8,59.0,68,30.12,-9999.0,ESE,21.9,-,N/A,,Unknown,120,2012-10-03 20:30:00
7:00 AM,71.6,60.8,69,30.12,-9999.0,SE,20.7,-,N/A,,Unknown,130,2012-10-03 21:00:00
7:30 AM,71.6,60.8,69,30.15,-9999.0,SE,21.9,-,N/A,,Unknown,140,2012-10-03 21:30:00
8:00 AM,73.4,60.8,65,30.15,-9999.0,ESE,24.2,-,N/A,,Unknown,120,2012-10-03 22:00:00
8:30 AM,75.2,62.6,65,30.15,-9999.0,SE,21.9,-,N/A,,Unknown,130,2012-10-03 22:30:00
9:00 AM,73,60,54,30.16,,ESE,23.0,,,,,120,2012-10-03 23:00:00
9:00 AM,73.4,59.0,61,30.15,-9999.0,ESE,23.0,-,N/A,,Unknown,120,2012-10-03 23:00:00
9:30 AM,77.0,59.0,54,30.15,-9999.0,ESE,19.6,-,N/A,,Unknown,120,2012-10-03 23:30:00
9:50 AM,73.4,62.6,69,30.15,-9999.0,SSE,24.2,-,N/A,,Unknown,150,2012-10-03 23:50:00
10:00 AM,71.6,62.6,73,30.15,-9999.0,SSE,24.2,-,N/A,,Unknown,160,2012-10-04 00:00:00
10:30 AM,69.8,64.4,83,30.15,-9999.0,SSE,18.4,-,N/A,,Unknown,160,2012-10-04 00:30:00
11:00 AM,69.8,62.6,78,30.15,-9999.0,SSE,21.9,-,N/A,,Unknown,150,2012-10-04 01:00:00
11:30 AM,71.6,62.6,73,30.15,-9999.0,SE,21.9,-,N/A,,Unknown,130,2012-10-04 01:30:00
12:00 PM,76,59,46,30.15,,ESE,24.2,,,,,120,2012-10-04 02:00:00
12:00 PM,75.2,59.0,57,30.15,-9999.0,ESE,24.2,-,N/A,,Unknown,120,2012-10-04 02:00:00
12:30 PM,75.2,57.2,53,30.12,-9999.0,ESE,25.3,-,N/A,,Unknown,120,2012-10-04 02:30:00
1:00 PM,73.4,60.8,65,30.12,-9999.0,SSE,23.0,-,N/A,,Unknown,150,2012-10-04 03:00:00
1:30 PM,75.2,62.6,65,30.12,-9999.0,SSE,23.0,-,N/A,,Unknown,150,2012-10-04 03:30:00
1:59 PM,71.6,62.6,73,30.09,-9999.0,SE,31.1,-,N/A,,Unknown,140,2012-10-04 03:59:00
2:00 PM,71.6,60.8,69,30.09,-9999.0,SE,32.2,-,N/A,,Unknown,140,2012-10-04 04:00:00
2:30 PM,69.8,59.0,68,30.09,-9999.0,SE,20.7,-,N/A,,Unknown,140,2012-10-04 04:30:00
3:00 PM,72,61,59,30.10,,SSE,20.7,,,,,150,2012-10-04 05:00:00
3:00 PM,71.6,60.8,69,30.09,-9999.0,SSE,20.7,-,N/A,,Unknown,150,2012-10-04 05:00:00
3:30 PM,71.6,60.8,69,30.06,-9999.0,SE,21.9,-,N/A,,Unknown,130,2012-10-04 05:30:00
4:00 PM,73.4,60.8,65,30.06,-9999.0,SE,26.5,-,N/A,,Unknown,130,2012-10-04 06:00:00
4:30 PM,71.6,60.8,69,30.09,-9999.0,SE,27.6,-,N/A,,Unknown,130,2012-10-04 06:30:00
5:00 PM,71.6,59.0,64,30.09,-9999.0,ESE,28.8,-,N/A,,Unknown,120,2012-10-04 07:00:00
5:30 PM,71.6,59.0,64,30.09,-9999.0,ESE,27.6,-,N/A,,Unknown,120,2012-10-04 07:30:00
6:00 PM,71,59,57,30.10,,ESE,26.5,,,,,120,2012-10-04 08:00:00
6:00 PM,69.8,59.0,68,30.09,-9999.0,ESE,26.5,-,N/A,,Unknown,120,2012-10-04 08:00:00
6:30 PM,71.6,60.8,69,30.09,-9999.0,ESE,26.5,-,N/A,,Unknown,120,2012-10-04 08:30:00
7:00 PM,69.8,60.8,73,30.09,-9999.0,SE,24.2,-,N/A,,Unknown,130,2012-10-04 09:00:00
7:30 PM,69.8,60.8,73,30.09,-9999.0,ESE,27.6,-,N/A,,Unknown,120,2012-10-04 09:30:00
8:00 PM,69.8,60.8,73,30.09,-9999.0,ESE,27.6,-,N/A,,Unknown,120,2012-10-04 10:00:00
8:30 PM,69.8,59.0,68,30.09,-9999.0,ESE,26.5,-,N/A,,Unknown,120,2012-10-04 10:30:00
9:00 PM,71,59,58,30.11,,ESE,25.3,,,,,120,2012-10-04 11:00:00
9:00 PM,71.6,59.0,64,30.09,-9999.0,ESE,25.3,-,N/A,,Unknown,110,2012-10-04 11:00:00
9:30 PM,71.6,59.0,64,30.09,-9999.0,ESE,24.2,-,N/A,,Unknown,110,2012-10-04 11:30:00
10:00 PM,71.6,59.0,64,30.09,-9999.0,ESE,26.5,-,N/A,,Unknown,120,2012-10-04 12:00:00
10:30 PM,71.6,59.0,64,30.09,-9999.0,ESE,26.5,-,N/A,,Unknown,110,2012-10-04 12:30:00
11:00 PM,71.6,59.0,64,30.09,-9999.0,ESE,26.5,-,N/A,,Unknown,120,2012-10-04 13:00:00
11:30 PM,71.6,59.0,64,30.09,-9999.0,ESE,25.3,-,N/A,,Unknown,120,2012-10-04 13:30:00